Theta_e
356 355 354 354 357 357 351 342 319 327 325 317 320 325 319 330 333 332 331 333 329 333 334 336 337 338 337 332 334 337 338 332 332 321 320 339 352 353 355 354 355 356 357 358 361 362 363 364 365 366 366 367 366 365 367 367 368 367 367 366 366 366 366 366 365 365 365 365 365 364 364 364 364 364 364 363 363 362 362 363 363 363 362 361 361 361 361 361 360 360 361 360 360 360 360 361 361
356 356 356 357 355 353 334 343 325 322 322 319 319 327 328 331 330 328 328 331 330 332 337 336 336 339 338 337 339 339 337 340 341 338 343 348 352 352 353 354 356 355 357 359 361 361 362 364 366 366 366 367 366 366 367 368 367 367 366 366 366 366 366 365 365 365 365 365 364 364 364 363 363 363 362 362 362 362 362 361 362 363 362 362 362 362 362 362 362 361 360 360 360 360 360 361 361
354 356 355 356 358 345 341 340 317 319 315 315 319 324 331 331 328 327 333 334 334 336 337 336 337 336 335 337 333 333 328 342 341 342 342 349 347 348 353 357 357 356 357 359 360 360 362 363 365 366 365 367 367 366 367 368 367 367 366 366 366 366 366 365 364 364 364 364 363 363 363 363 363 362 362 362 362 362 362 361 361 362 362 362 362 361 362 362 362 362 362 361 361 360 360 360 360
356 357 356 352 337 347 329 328 324 320 315 316 317 327 327 328 328 330 333 335 335 338 338 334 333 339 337 331 333 338 335 337 342 342 341 345 347 351 354 355 357 356 356 358 358 359 362 363 365 366 366 367 367 367 368 367 367 366 367 367 366 366 365 365 364 364 364 363 363 363 363 363 362 362 362 362 362 362 362 361 361 361 361 362 361 362 362 361 362 362 362 362 362 361 361 361 360
356 356 358 351 339 331 329 324 324 325 316 320 316 326 327 329 330 332 332 337 338 337 336 335 333 338 339 337 339 331 333 342 343 346 344 347 352 353 354 355 355 354 355 356 359 360 362 362 364 366 366 367 368 368 367 367 367 366 366 366 366 365 365 364 364 363 363 363 363 362 362 362 362 362 362 362 362 361 362 362 362 362 362 363 362 362 362 363 362 362 363 362 362 361 361 361 360
359 357 359 349 336 348 335 323 322 320 322 326 322 325 329 329 332 337 334 335 338 338 337 334 332 332 332 335 339 335 341 334 343 344 347 347 352 353 354 356 355 353 354 356 359 361 361 362 364 366 367 367 368 368 368 367 367 366 366 366 366 365 364 364 364 364 364 364 363 363 362 362 362 362 362 362 362 363 362 364 364 363 364 364 363 363 362 362 362 362 362 362 361 361 361 361 360
352 350 348 345 342 340 324 322 320 322 322 327 325 327 331 332 335 336 334 334 337 339 340 333 337 336 331 336 339 343 347 347 345 345 349 351 352 354 355 355 355 355 356 357 359 360 360 363 365 367 367 367 368 368 368 368 367 367 366 366 366 365 365 365 364 364 363 363 362 362 363 362 362 362 362 362 363 363 363 363 363 363 363 363 363 362 362 362 361 362 362 361 361 361 361 361 362
362 344 340 330 326 329 322 322 323 324 324 329 331 329 334 332 334 334 332 331 330 332 334 336 337 333 331 341 330 341 348 350 349 350 351 352 352 352 353 354 353 354 356 358 360 360 363 364 365 366 367 368 368 368 368 368 367 367 367 366 366 365 365 364 364 364 363 363 364 363 363 363 363 364 363 363 363 363 363 363 363 363 363 363 363 363 363 363 363 362 362 362 361 361 361 362 362
353 345 346 332 325 327 323 320 321 327 325 329 331 337 338 338 336 335 333 334 333 335 334 335 336 330 331 333 333 341 346 349 350 351 351 352 353 355 354 354 353 353 356 357 360 362 362 365 365 366 367 368 368 368 368 368 368 367 366 366 365 365 365 365 364 363 363 363 363 363 364 364 364 364 364 364 364 364 364 363 363 363 363 363 363 364 362 362 362 362 362 362 362 362 362 362 362
346 343 330 328 328 320 321 321 318 324 327 330 330 336 333 334 335 334 333 331 333 337 336 338 338 332 336 331 335 339 342 349 348 348 351 353 353 354 353 354 355 353 353 356 361 362 362 366 365 366 367 368 368 368 368 368 368 367 366 365 365 365 365 365 364 363 363 363 363 364 364 364 364 364 364 364 364 364 364 364 364 364 363 363 363 362 362 362 363 363 363 362 362 363 362 362 362
337 343 343 326 321 318 317 318 318 324 327 330 331 337 334 335 336 335 335 333 336 335 337 338 333 334 335 334 336 347 348 347 347 346 351 351 352 354 353 354 356 356 355 357 358 360 362 362 365 366 367 368 367 368 368 368 368 367 366 365 365 366 366 365 365 364 364 364 364 364 364 365 365 365 365 364 364 364 364 364 364 364 363 363 363 363 363 363 363 363 363 363 362 362 362 362 363
334 335 334 323 321 318 320 321 320 324 327 329 329 335 337 335 336 332 333 332 334 333 334 339 334 340 333 332 333 342 345 345 347 350 351 351 351 353 353 354 355 356 357 356 358 361 362 363 364 368 367 368 367 368 369 368 367 367 366 365 365 366 367 366 365 365 365 364 364 364 365 365 365 365 364 364 364 364 364 364 364 364 364 364 364 364 364 364 363 362 363 363 363 363 363 363 363
332 335 329 324 321 322 322 323 320 323 323 324 329 332 338 333 331 334 334 334 333 332 334 341 341 340 330 332 337 341 341 345 349 351 352 352 354 353 353 353 354 356 355 357 357 358 361 361 362 364 366 368 368 369 369 368 367 367 367 366 366 366 367 366 365 365 364 364 365 364 364 365 366 365 364 365 364 364 364 364 364 364 365 365 365 365 364 364 364 364 363 364 364 364 363 363 363
334 333 331 321 328 323 323 321 320 317 319 326 331 334 336 335 333 336 335 332 335 334 339 342 341 341 334 336 335 335 338 345 349 349 350 351 353 353 354 355 355 353 356 356 356 359 360 359 360 361 365 366 366 367 368 368 368 367 367 367 367 367 366 366 365 365 364 363 362 363 364 365 366 366 366 365 365 364 364 364 364 364 364 365 365 365 364 364 364 365 365 364 364 364 364 363 363
332 336 332 326 325 320 324 320 321 318 319 327 328 332 333 336 337 335 334 331 334 339 342 346 344 339 329 333 332 336 341 346 348 349 349 351 351 352 351 352 353 354 354 356 357 358 357 358 358 362 363 363 365 365 367 366 367 367 366 367 368 367 366 365 365 364 364 363 362 362 362 364 365 366 365 364 364 363 363 364 364 364 364 364 364 364 363 363 364 365 365 365 364 365 364 364 363
335 332 330 323 320 320 321 321 322 318 319 326 330 332 331 334 338 334 335 338 336 340 342 335 344 338 338 336 336 340 343 345 348 348 349 348 351 351 350 352 354 353 354 354 356 357 356 356 358 358 359 361 362 363 365 366 367 367 368 368 368 368 366 365 364 364 363 363 362 361 361 361 364 362 364 363 364 365 364 363 364 363 363 363 363 362 362 362 363 363 364 364 364 364 363 362 362
336 333 323 324 318 318 320 320 321 316 323 326 329 329 327 329 337 338 340 342 336 335 338 339 339 344 340 339 341 344 345 347 348 347 347 348 347 346 347 348 349 350 352 353 355 355 354 356 357 356 358 359 358 361 364 366 366 368 367 368 368 368 366 365 365 364 363 362 362 362 361 360 365 365 364 362 364 363 364 364 363 363 363 363 363 362 361 362 362 363 363 364 364 362 363 362 363
333 327 323 319 321 320 325 323 323 326 324 325 329 330 329 327 331 334 337 336 336 336 335 339 340 340 344 343 345 345 346 345 345 344 344 344 345 344 345 345 347 347 349 350 353 354 353 355 355 356 356 357 358 360 363 364 367 365 366 367 366 367 366 365 365 362 363 363 360 363 365 365 366 369 366 365 365 364 363 364 364 363 363 363 362 363 362 363 362 364 365 365 365 363 363 367 365
326 325 322 319 323 327 329 327 328 324 322 326 328 330 329 328 330 334 330 329 332 331 333 335 336 339 343 343 343 344 344 343 343 344 343 342 343 342 344 346 346 345 346 349 350 351 355 355 354 354 353 356 356 359 360 364 363 364 364 364 365 366 366 364 363 363 363 363 365 359 368 364 363 367 367 366 366 364 362 364 364 364 363 362 362 362 364 363 364 364 366 365 364 363 363 367 363
328 323 319 325 329 331 333 332 329 332 333 327 328 329 330 328 331 334 330 328 331 329 329 333 334 335 339 341 343 343 343 342 343 343 343 343 344 343 344 344 347 348 347 347 348 351 353 353 354 353 354 356 356 356 358 361 360 362 361 361 362 364 365 364 365 365 364 363 360 362 363 363 363 366 368 367 366 363 364 364 365 365 364 364 363 363 362 363 364 365 365 363 361 362 362 360 361
330 324 318 326 332 328 330 330 330 332 331 328 328 330 329 327 331 329 330 327 329 330 333 335 333 336 338 340 341 341 341 341 342 343 343 344 345 345 345 346 345 349 349 348 348 351 352 352 351 354 355 356 356 355 356 357 359 359 359 359 359 361 362 362 363 365 366 367 363 363 358 360 362 366 366 365 366 368 365 365 363 364 365 362 364 364 365 362 364 364 364 365 363 365 361 361 363
330 325 326 329 332 329 330 333 334 333 332 330 329 325 329 333 329 331 330 325 324 330 334 336 337 339 339 339 341 342 341 340 341 341 343 344 344 344 347 347 350 351 351 348 347 352 351 351 350 352 353 357 357 356 355 358 358 356 356 356 358 357 359 359 362 366 363 364 364 356 356 358 361 365 362 365 366 367 365 366 365 365 364 365 365 368 363 366 362 361 363 361 359 363 359 359 358
320 325 327 331 334 333 332 331 333 336 331 330 324 329 330 330 329 332 331 328 330 335 337 338 338 340 342 342 341 340 340 340 340 340 342 343 344 344 347 347 348 349 349 349 352 352 353 351 352 353 352 357 358 358 357 358 354 355 356 356 356 354 356 356 358 361 363 367 364 365 355 352 357 358 363 365 363 366 365 363 364 364 365 365 365 364 360 361 362 365 357 360 362 358 355 359 361
326 322 327 330 331 329 331 332 332 331 330 329 332 335 329 328 327 331 329 332 333 337 338 338 340 342 342 340 341 340 340 339 339 341 343 342 344 345 347 348 347 349 352 350 351 352 354 353 355 354 355 356 359 359 359 357 355 352 354 359 357 356 356 355 355 361 363 364 368 367 364 359 355 357 362 364 362 360 361 363 363 362 361 362 365 361 359 361 362 363 357 360 361 357 353 358 359
322 322 326 330 330 331 333 333 332 331 330 332 332 328 326 328 328 330 329 332 334 336 339 338 340 340 341 341 341 340 340 341 340 342 344 345 346 347 348 350 349 350 349 350 352 353 355 356 357 355 356 360 358 357 355 359 357 355 354 355 356 361 357 356 358 360 364 364 363 368 365 357 353 357 361 362 364 362 364 361 362 361 363 363 364 364 360 359 360 357 353 357 359 363 361 360 362
325 324 327 327 327 334 334 332 331 330 330 331 329 327 328 329 332 328 331 332 334 337 337 337 338 338 338 340 341 340 340 340 341 342 343 345 346 346 347 347 348 347 350 351 351 354 356 355 356 356 357 359 359 356 358 358 359 357 359 359 361 364 359 360 363 362 359 361 360 365 359 362 361 356 363 363 360 364 361 361 361 359 362 366 361 360 365 359 358 356 352 358 362 359 357 366 364
327 325 325 325 326 327 331 330 330 330 329 331 328 328 327 330 327 321 331 333 334 335 335 336 335 335 337 339 341 342 341 341 341 343 344 344 347 346 347 348 348 348 350 352 354 355 356 356 355 358 359 362 359 356 358 359 360 359 360 360 360 359 359 364 364 360 358 359 364 367 368 372 365 357 363 360 360 361 362 361 361 366 364 363 366 361 362 359 357 356 358 359 364 367 367 365 361
326 326 326 325 325 327 328 330 330 331 329 332 330 327 328 329 325 323 330 334 333 332 334 335 335 336 336 338 341 342 341 344 344 343 342 342 343 346 346 347 347 349 348 349 353 355 357 354 356 357 358 361 360 357 361 359 360 359 362 361 359 361 364 360 361 359 365 366 367 367 372 366 372 366 364 363 362 365 364 362 361 362 362 366 366 363 360 362 360 364 367 372 363 368 364 363 363
325 326 320 323 326 322 324 325 328 330 328 331 331 327 324 325 322 326 330 333 333 332 333 334 335 336 338 339 341 343 341 343 343 343 342 344 345 346 346 348 348 349 350 353 354 355 353 353 354 357 360 362 360 356 357 359 359 357 359 360 361 362 360 361 360 362 364 368 369 368 370 370 372 368 369 366 366 366 362 366 364 363 365 368 365 364 364 369 367 365 365 363 370 366 362 360 360
323 324 322 321 320 319 324 325 327 328 328 331 330 314 318 323 326 327 331 332 332 331 332 332 335 335 336 339 340 341 344 344 342 342 343 344 345 346 347 349 349 349 351 353 353 353 353 354 355 356 360 358 361 356 358 358 359 358 359 359 363 362 358 357 361 365 367 368 367 370 368 371 368 371 370 367 370 364 365 366 364 363 366 368 370 373 370 366 366 362 361 367 362 366 361 360 361
315 319 324 317 316 315 323 324 325 323 328 329 329 314 317 322 326 328 331 333 330 329 332 332 334 334 336 336 339 340 342 344 343 344 344 345 346 347 348 349 349 350 352 353 353 354 355 354 355 355 359 357 360 359 359 360 360 357 358 359 359 361 360 358 357 362 364 363 363 367 370 369 370 371 371 371 367 367 363 362 363 364 368 368 371 372 366 365 364 363 363 363 362 364 361 360 356
318 314 312 317 314 316 321 325 324 319 325 328 326 315 317 321 324 328 332 333 331 330 331 333 334 335 336 337 338 341 342 344 343 343 344 346 346 347 348 348 349 350 351 354 354 356 354 355 357 354 356 358 360 361 360 361 361 362 360 361 360 363 360 358 358 356 358 360 360 365 369 368 369 369 370 371 371 366 365 367 367 367 368 365 368 370 370 366 364 363 364 362 364 355 359 359 358
315 313 312 312 314 314 316 321 324 324 324 326 323 316 319 319 324 327 331 331 330 331 330 333 332 334 331 335 339 341 342 343 344 343 344 345 346 347 348 349 350 351 352 353 354 357 356 355 357 353 355 356 359 357 362 364 364 364 363 359 354 362 358 358 359 357 357 358 359 359 366 369 368 369 370 369 368 366 368 366 367 364 368 371 371 369 368 368 365 357 371 366 366 366 358 352 351
309 313 310 314 313 315 312 319 321 324 322 319 323 319 319 321 325 326 329 330 329 330 333 334 334 334 336 338 340 341 341 342 341 343 343 345 346 347 348 352 351 351 352 353 355 355 354 355 355 354 355 357 360 361 363 363 363 365 362 360 363 359 357 356 357 359 358 357 359 362 365 367 368 368 369 370 369 365 365 364 363 367 366 368 369 370 370 366 365 363 366 371 364 366 362 357 351
308 309 308 310 314 315 313 312 318 320 321 318 320 319 320 321 324 326 328 329 329 330 330 330 332 332 334 335 339 340 341 342 343 345 345 346 346 347 348 350 350 350 350 352 353 356 356 356 357 359 357 358 358 362 365 364 364 365 361 362 359 362 363 359 357 358 357 357 353 365 366 366 367 368 368 370 368 366 363 363 363 365 362 369 371 365 364 363 365 364 363 363 364 365 365 359 356
311 312 310 311 309 311 312 316 320 320 318 317 318 316 318 320 323 325 327 329 329 329 329 330 331 333 335 336 337 340 341 342 345 346 345 346 346 347 347 349 349 349 350 352 355 356 357 358 357 360 359 357 361 362 362 359 358 358 355 357 357 359 360 360 359 356 357 358 356 365 366 368 368 368 368 368 369 368 365 362 362 362 365 369 368 359 363 365 363 363 362 358 354 360 368 361 358
314 313 311 310 310 312 315 316 319 321 318 316 318 319 319 320 321 323 325 327 328 329 328 328 329 331 333 337 338 339 342 343 346 347 347 346 346 348 350 349 349 350 352 353 354 354 355 355 355 356 358 359 359 358 357 355 353 355 356 354 353 354 359 359 357 356 355 353 359 361 367 366 369 368 369 368 367 368 371 368 368 365 366 366 366 362 362 361 364 362 367 368 359 359 359 358 352
311 311 310 309 310 308 314 315 319 321 317 316 318 317 318 320 322 323 326 326 325 327 330 331 331 331 333 336 336 339 341 345 346 345 345 346 346 348 349 349 350 348 351 351 351 352 354 353 354 355 357 357 357 356 356 355 357 355 355 354 353 354 358 358 356 359 356 355 367 367 366 365 368 368 369 369 369 367 369 366 367 367 368 368 368 366 362 364 364 363 363 365 364 358 358 351 352
311 309 309 308 309 312 315 316 319 320 317 314 317 316 317 320 321 323 323 324 327 328 328 327 332 333 335 336 337 339 340 341 344 344 345 345 346 347 349 349 349 348 349 349 352 353 354 354 355 356 355 356 356 356 357 356 358 359 357 356 355 354 358 359 356 357 359 353 359 366 366 367 368 367 368 368 367 366 368 366 366 370 368 367 366 365 365 363 365 363 363 359 357 357 357 358 358
311 309 306 305 310 309 307 313 317 318 317 315 317 315 317 320 322 323 324 324 325 327 328 328 332 337 335 335 337 339 340 342 342 342 342 344 345 347 348 349 350 349 350 350 350 352 353 355 357 356 356 357 357 357 359 359 360 363 364 362 360 358 356 360 362 361 360 356 353 359 368 367 367 365 365 365 366 367 371 369 370 368 372 368 368 366 364 362 365 366 363 359 359 351 349 351 352
312 311 308 307 308 310 311 312 315 318 318 318 317 314 314 317 317 318 322 325 324 325 326 328 329 329 336 339 341 341 340 342 341 342 344 343 344 345 348 350 349 348 349 349 350 350 350 353 358 357 357 358 358 359 360 360 361 362 363 365 363 362 363 358 358 356 357 358 354 357 362 367 367 364 365 366 365 367 372 370 370 368 370 367 369 368 366 364 365 366 364 361 358 355 351 354 355
309 313 311 309 311 310 311 312 312 311 311 316 314 307 308 315 316 317 320 321 321 324 324 325 330 330 338 337 339 341 343 345 344 343 342 344 346 350 350 351 349 349 350 351 351 352 353 354 359 359 358 359 358 360 360 361 360 358 358 357 354 354 355 353 351 352 352 353 349 351 360 361 363 363 366 366 364 367 370 371 371 367 370 371 367 367 366 367 360 360 362 360 358 360 362 351 344
308 309 314 312 311 311 311 310 310 306 304 312 317 306 304 313 314 317 319 320 320 322 323 324 328 330 336 337 338 339 340 342 345 345 345 344 345 346 347 350 349 349 351 353 353 354 356 356 359 360 359 359 360 361 361 362 360 360 358 356 356 354 353 354 358 355 355 356 356 356 361 362 366 364 363 365 365 367 372 372 371 370 369 369 369 368 366 362 361 363 362 361 361 363 363 357 356
307 314 313 312 311 310 310 310 310 309 314 314 315 312 306 306 313 318 319 319 319 320 322 324 325 328 337 336 338 340 340 343 342 342 344 344 345 343 346 350 350 350 352 353 353 355 356 357 359 360 360 360 360 362 361 362 360 360 359 357 357 356 352 355 359 360 361 362 359 357 359 361 366 365 363 365 365 366 371 370 371 370 368 367 370 369 365 362 364 366 364 364 364 364 361 356 355
310 314 314 311 310 311 310 309 308 309 309 305 310 313 306 306 312 319 319 315 317 318 320 323 326 327 334 338 339 339 339 341 342 343 344 346 344 345 347 349 351 352 353 353 354 355 357 358 359 360 360 360 361 363 361 361 362 361 360 359 358 359 358 358 360 361 360 362 362 360 362 361 365 366 366 364 366 365 369 372 373 370 367 367 369 367 366 364 366 364 362 364 363 365 362 362 360
313 315 314 313 312 310 309 307 307 307 305 302 308 311 304 304 311 313 317 316 315 317 319 321 324 326 331 331 331 335 339 342 344 346 346 346 349 349 350 352 353 352 354 356 354 354 356 358 359 360 360 361 361 363 362 362 362 362 360 359 359 359 360 359 359 360 362 364 362 362 361 364 363 364 365 366 366 366 368 370 370 371 367 363 366 365 365 365 365 366 364 362 362 360 363 362 360
316 313 311 309 309 308 308 307 307 304 299 302 307 309 307 300 308 311 312 313 317 318 320 322 325 326 327 333 334 334 336 339 340 341 345 346 346 347 348 350 354 353 354 354 353 354 355 357 359 359 360 361 362 362 362 361 361 362 361 361 360 360 360 360 360 361 361 362 361 362 361 365 364 363 363 365 365 365 366 368 365 368 368 366 368 366 364 362 365 366 361 364 364 362 362 360 360
313 309 307 306 304 306 305 304 305 298 296 304 308 308 308 299 305 312 317 320 319 319 319 321 322 324 327 333 332 336 338 339 341 342 344 346 347 349 350 350 353 354 354 353 353 354 355 357 358 358 360 362 362 361 362 361 361 362 362 363 361 362 361 359 360 359 360 360 361 361 365 363 365 365 365 364 362 360 365 367 367 367 369 370 369 368 366 365 364 364 364 365 363 364 364 361 358
310 308 306 300 298 299 296 300 295 295 295 303 307 308 304 303 309 314 317 318 321 322 322 322 322 324 327 330 331 337 338 338 339 341 343 345 345 347 346 350 353 354 354 355 354 354 356 358 359 358 359 362 362 362 361 362 361 361 362 362 362 363 363 361 361 359 362 361 361 361 363 364 363 364 364 363 362 361 365 367 366 366 367 367 369 369 368 370 368 363 364 363 362 362 363 362 358
307 305 303 299 295 294 292 296 299 298 301 305 305 308 302 307 310 315 315 319 321 323 324 324 325 325 328 332 333 334 336 338 339 339 341 342 346 347 348 347 350 354 355 355 355 356 357 357 360 359 359 361 363 362 361 361 362 362 363 363 363 363 363 363 361 359 360 363 364 362 360 361 364 362 362 363 362 361 363 366 367 367 369 369 369 372 371 371 371 367 364 362 360 362 362 362 360
307 309 305 302 301 297 292 296 293 295 299 302 307 303 300 301 306 315 317 319 322 323 324 326 327 329 332 333 331 327 337 339 338 339 339 340 343 346 347 349 352 355 354 354 355 357 359 359 360 359 359 361 362 362 362 362 362 363 363 363 364 364 363 363 362 360 359 360 363 363 364 362 362 363 363 365 365 364 363 365 366 366 367 368 368 370 369 370 371 369 368 364 361 364 362 362 359
309 309 309 303 302 307 298 301 299 299 299 299 302 301 306 306 315 316 318 318 319 321 323 324 326 328 332 332 331 327 334 336 338 340 341 343 345 350 350 350 354 355 356 354 355 357 358 359 361 361 361 361 362 363 362 362 363 363 364 363 363 364 364 364 363 362 361 362 363 365 366 366 364 365 367 367 366 365 364 364 366 365 367 367 368 368 368 367 369 367 368 366 364 362 362 362 360
306 307 301 304 311 308 304 305 305 304 301 298 306 303 305 311 312 315 316 316 317 318 319 321 322 327 333 331 328 326 329 340 339 340 341 343 342 345 348 350 351 355 355 355 357 358 358 359 360 362 363 362 362 363 363 363 364 363 363 363 363 364 365 362 360 361 358 361 363 365 366 367 367 367 367 367 366 365 366 364 364 363 367 367 368 369 368 369 369 367 365 365 363 359 362 361 359
308 302 305 311 313 310 305 299 303 300 296 299 303 301 303 302 300 313 313 313 315 316 317 319 322 324 325 329 331 330 328 330 339 341 342 343 343 343 346 349 351 356 355 356 359 360 360 361 360 360 362 363 362 362 361 363 363 363 363 363 363 363 362 361 360 360 360 360 361 364 365 367 365 365 365 364 365 365 365 368 364 364 366 367 365 366 368 368 368 366 366 366 364 364 362 362 361
310 307 313 304 300 299 305 303 296 297 296 299 302 304 304 305 305 310 310 312 313 316 318 318 318 321 323 330 330 331 330 330 339 341 342 342 343 346 351 347 353 357 359 358 360 358 359 361 360 361 362 363 363 361 362 364 364 363 363 363 363 363 362 362 361 362 361 359 358 361 361 363 366 366 364 365 366 365 364 365 366 366 367 368 367 366 368 368 367 364 364 365 365 365 363 361 361
315 315 310 312 308 304 301 303 305 305 300 299 300 304 301 309 309 311 312 314 316 315 317 317 317 320 323 326 330 332 330 330 337 336 337 339 341 342 348 352 353 355 357 356 356 356 356 360 362 362 363 365 364 363 364 363 364 364 364 364 364 364 363 363 363 363 361 360 360 360 361 359 365 366 365 363 366 365 365 363 364 364 364 366 367 365 367 368 367 364 363 362 362 365 363 361 359
306 307 307 307 307 311 308 307 303 302 301 301 300 298 304 312 315 314 315 316 317 317 317 320 319 320 323 329 330 330 329 331 337 337 337 336 338 342 348 354 355 353 358 357 355 355 356 358 362 363 364 364 363 363 362 364 365 365 365 364 363 364 363 363 363 363 363 362 362 361 362 362 365 365 365 363 362 365 366 366 362 362 362 364 366 364 365 367 366 364 364 364 363 364 362 361 360
307 306 306 307 304 302 299 298 307 304 302 297 300 299 308 312 316 317 316 318 318 318 319 320 320 320 325 326 330 331 331 333 334 335 335 338 346 346 344 348 355 351 355 356 356 356 355 357 361 363 363 364 363 364 364 365 366 364 362 363 362 363 364 362 361 362 362 362 363 362 363 365 364 365 366 364 363 362 366 367 365 364 364 366 367 366 365 365 365 364 364 364 363 364 362 361 361
Wind_Speed
10 9 9 9 6 4 4 1 3 3 3 3 1 1 1 2 2 6 6 5 4 0 7 10 9 8 9 11 14 11 10 4 5 2 8 8 13 14 13 17 17 16 15 13 12 12 13 12 15 15 15 16 17 18 18 17 17 17 16 16 16 15 15 15 15 15 15 14 14 14 14 14 15 15 15 15 15 15 14 15 14 14 14 13 13 13 12 12 12 12 11 11 11 11 11 11 10
9 9 9 7 5 3 2 3 3 2 4 3 2 2 2 2 5 7 7 8 6 5 11 13 14 17 17 16 15 16 16 13 15 14 13 15 17 14 19 18 18 17 14 13 12 12 13 12 14 15 16 17 17 18 18 17 17 17 16 16 15 15 15 15 15 14 14 14 14 14 14 14 14 14 14 14 14 14 14 14 14 14 14 14 13 13 12 12 11 11 10 10 10 10 10 10 10
10 9 5 5 1 4 3 2 3 2 2 2 2 3 4 2 7 9 9 10 10 12 12 13 14 12 10 12 11 15 10 15 21 19 13 18 16 14 20 18 16 17 16 12 12 13 11 12 12 15 18 18 17 18 18 17 17 16 16 15 15 16 15 15 14 14 14 14 14 14 14 14 14 14 14 14 13 14 14 14 14 14 13 13 13 13 13 12 12 11 10 9 8 9 9 9 8
7 8 7 6 2 1 2 2 4 4 2 2 2 5 5 7 8 9 8 16 2 10 8 10 9 6 12 17 17 20 15 12 15 18 14 13 10 17 18 19 18 15 14 11 12 13 11 12 12 15 18 18 18 18 17 17 16 16 15 15 15 15 15 14 14 14 13 13 13 13 13 13 13 13 13 13 13 13 13 13 13 13 13 12 13 13 12 12 12 11 11 10 9 8 8 8 8
5 5 1 2 2 2 1 2 4 3 1 4 3 5 8 10 11 8 6 11 11 11 11 11 11 10 13 14 9 9 12 17 15 12 12 14 18 18 19 19 17 16 15 14 12 12 11 14 11 15 18 18 18 17 17 17 16 16 15 15 15 15 14 14 14 13 13 13 13 13 13 13 13 12 12 12 12 12 12 12 12 12 11 11 11 12 11 12 11 11 10 9 9 8 8 8 8
6 5 1 2 2 1 4 3 4 6 7 3 2 5 17 14 13 14 14 9 12 12 6 9 11 11 11 12 9 13 16 11 13 12 16 17 22 22 21 18 18 17 16 14 13 10 11 13 11 14 18 18 17 17 17 16 16 16 15 15 15 15 14 14 14 13 13 13 13 13 13 13 12 12 12 12 11 12 11 11 11 10 11 11 10 10 10 10 11 10 10 9 9 8 8 8 7
5 3 1 1 5 1 4 4 4 6 8 7 3 6 10 11 9 15 14 12 12 15 8 14 18 16 12 10 14 10 13 16 13 14 15 20 22 21 20 17 16 18 17 14 12 12 15 13 13 15 18 18 17 17 16 16 16 16 15 15 15 14 14 14 13 13 13 13 13 13 13 12 12 12 12 11 11 10 10 10 10 10 10 10 10 9 10 10 10 10 9 9 9 8 8 7 7
5 3 2 1 2 1 4 7 8 6 4 11 14 9 9 9 13 13 12 11 9 8 9 11 12 13 14 11 13 13 15 12 18 20 22 20 21 20 20 17 17 18 17 15 13 12 14 15 14 18 18 18 17 17 16 16 16 16 15 15 14 14 14 14 14 13 13 13 13 13 12 12 12 12 11 11 10 10 10 10 10 10 9 9 10 9 10 10 9 9 9 9 9 8 8 8 7
7 4 2 3 5 4 6 9 11 9 7 5 12 9 10 14 11 13 8 10 12 9 12 13 12 14 12 16 13 14 13 19 21 23 22 22 21 18 14 17 17 16 16 15 14 13 12 14 17 19 18 17 18 16 16 16 16 16 15 15 14 13 13 13 13 13 13 12 12 12 12 12 12 11 11 11 10 10 9 9 9 9 9 9 9 9 9 9 9 9 9 9 9 8 8 7 7
4 5 1 1 6 8 6 7 5 7 7 9 7 14 13 9 13 11 15 12 11 14 12 12 13 16 16 16 14 13 13 20 22 22 21 21 20 17 17 17 18 18 17 16 14 14 13 17 19 18 18 17 17 16 16 16 16 16 15 14 13 13 13 13 13 13 12 12 12 12 12 11 11 11 11 10 10 10 10 10 9 9 9 9 9 9 9 9 9 9 9 8 8 8 8 7 7
2 2 0 3 3 8 7 8 7 8 11 6 4 18 9 7 14 14 12 14 11 12 13 15 16 15 13 13 11 12 18 21 21 24 21 22 20 18 17 17 17 18 18 18 16 15 15 14 20 18 18 17 17 16 16 16 16 16 14 14 13 13 13 13 12 12 12 12 11 11 11 11 11 10 10 10 10 10 10 9 9 9 8 8 8 9 9 9 9 9 8 8 8 7 7 7 6
4 4 3 4 4 6 8 9 12 12 11 3 9 13 9 8 14 14 15 13 11 14 13 9 10 14 15 14 12 14 19 19 20 20 22 21 19 20 18 15 18 18 19 19 17 15 15 14 13 17 18 17 16 16 16 16 16 15 14 14 13 12 12 12 12 12 11 11 11 11 11 11 10 10 10 10 9 10 10 10 9 9 8 8 9 9 9 9 9 8 8 8 7 7 6 6 5
8 3 3 4 6 7 11 8 8 8 8 4 6 7 15 11 13 17 13 14 14 13 10 12 15 11 13 12 10 16 19 18 19 18 21 16 18 17 16 17 20 20 19 18 18 17 16 14 13 13 15 18 16 16 16 16 16 15 14 14 13 12 12 12 11 11 10 10 10 10 10 10 10 10 10 10 9 9 9 9 9 8 8 8 8 8 8 8 8 7 7 7 7 6 6 5 5
8 6 3 3 4 6 13 4 8 2 4 7 6 7 6 13 10 17 13 13 11 10 14 15 10 14 16 14 12 13 15 20 20 20 17 19 17 17 18 14 18 20 20 18 17 17 16 15 14 13 14 12 12 14 16 16 15 14 14 13 13 12 12 11 11 10 10 10 9 9 9 9 10 9 9 9 9 8 8 7 8 8 8 8 8 8 8 7 7 7 6 6 5 5 5 5 5
7 5 6 5 6 5 8 5 2 10 7 6 4 5 6 13 18 13 12 15 13 13 14 11 13 12 11 15 13 14 17 20 20 18 20 19 18 17 18 18 17 17 18 17 17 17 16 15 15 13 12 12 12 10 9 12 15 14 14 13 13 12 11 11 10 10 10 9 8 8 8 8 8 9 8 8 8 8 8 8 7 7 7 7 7 7 7 6 5 5 5 5 4 4 4 4 4
8 7 4 4 6 6 7 9 14 4 3 6 7 9 8 11 17 11 10 13 13 14 12 11 10 3 16 13 17 19 22 22 19 17 17 23 21 17 16 17 15 18 15 16 16 15 15 15 14 12 11 12 10 10 11 11 13 14 13 13 13 12 12 11 10 10 9 9 8 7 7 6 7 6 8 7 8 7 6 7 6 6 6 6 6 6 6 5 4 3 3 3 3 3 2 2 2
8 8 5 4 6 5 5 7 8 6 4 6 6 8 5 10 14 15 12 19 18 14 9 11 8 12 14 15 18 22 22 20 19 20 17 13 16 15 14 11 14 13 14 16 13 13 16 15 14 11 12 13 12 12 10 10 11 13 11 12 12 12 11 11 10 10 9 8 7 6 6 5 4 4 4 5 7 6 8 7 6 6 5 5 5 5 5 4 4 3 3 3 3 2 1 1 3
8 6 7 7 7 8 4 9 10 14 8 5 4 6 10 9 10 13 12 16 15 16 13 9 10 10 14 18 18 21 21 21 20 20 17 14 12 14 12 14 13 12 12 13 14 14 13 13 14 13 11 12 11 9 9 8 9 11 9 9 8 9 10 10 8 7 7 5 7 5 4 1 1 3 2 6 4 6 6 7 5 6 6 5 5 5 4 4 4 5 5 5 4 4 2 1 3
8 7 8 5 5 5 5 8 7 6 9 2 8 3 5 8 8 11 11 12 15 15 14 12 10 11 18 19 21 22 22 20 21 19 19 18 14 17 14 13 13 15 14 12 12 16 12 12 12 13 13 10 12 10 9 9 10 7 9 8 7 9 8 8 6 6 5 5 4 5 3 3 3 3 2 3 4 5 6 6 6 5 5 6 5 5 5 5 6 6 7 5 4 4 3 2 2
11 8 8 5 8 8 10 10 9 13 8 13 7 6 3 6 7 8 10 13 13 13 14 13 13 16 19 21 21 21 22 20 20 20 19 17 16 17 15 15 13 12 14 14 13 13 14 11 12 12 12 11 10 8 9 9 8 7 7 7 6 6 6 6 6 5 4 5 5 4 5 4 4 3 6 6 6 3 4 5 6 6 6 6 6 4 5 5 6 7 6 6 3 2 0 2 3
8 9 10 6 7 3 5 12 16 19 11 5 6 7 3 7 9 8 10 11 7 10 13 16 17 18 20 21 21 21 21 21 19 19 19 17 16 15 14 14 15 12 11 13 12 12 14 13 13 11 11 10 10 8 9 9 8 7 7 6 6 6 6 5 5 5 3 4 4 4 6 6 5 4 4 3 2 3 3 3 3 3 3 3 5 2 2 3 4 3 3 3 2 2 2 3 2
8 11 10 8 4 4 4 9 14 16 10 6 2 8 8 8 8 5 11 5 8 8 14 14 16 20 22 23 22 22 22 21 21 20 20 19 19 16 15 13 14 12 12 12 13 13 14 13 13 12 12 10 9 8 9 8 9 7 7 7 6 6 6 5 4 4 4 5 5 4 7 6 5 3 3 3 2 1 2 2 1 1 1 2 2 1 1 2 3 2 1 2 2 2 2 2 4
11 10 4 14 12 6 7 8 17 18 12 3 3 6 3 6 4 6 9 10 6 11 18 15 16 19 20 21 21 21 21 21 21 20 19 19 19 17 16 14 12 13 11 13 10 11 12 14 12 13 13 9 10 8 7 8 7 6 7 6 6 5 5 5 5 5 5 4 5 3 1 4 6 3 3 3 4 3 1 1 2 1 1 2 2 1 2 2 3 3 3 3 2 3 4 4 3
12 10 10 16 10 9 12 12 11 10 14 7 9 18 11 8 3 5 8 5 12 11 15 18 19 20 21 20 21 22 20 22 21 19 19 19 19 18 17 15 15 12 8 12 12 12 13 16 12 13 11 10 8 9 7 7 6 8 7 6 6 6 5 5 5 5 6 5 4 2 2 3 6 5 4 5 3 3 2 2 2 0 1 1 2 0 2 1 2 2 3 5 4 5 1 2 1
14 13 13 9 14 8 9 11 12 12 12 11 7 6 10 9 11 8 9 5 12 16 18 17 19 20 20 20 21 21 19 21 19 20 18 14 17 16 17 12 13 14 14 14 12 12 14 13 14 15 13 11 9 9 9 7 7 6 7 6 5 5 4 5 5 6 5 4 5 3 5 2 3 4 3 4 4 3 3 3 2 2 2 1 1 1 2 1 2 2 3 5 7 2 1 2 1
14 14 13 12 12 17 15 13 12 12 8 11 9 8 8 8 5 7 11 10 12 14 17 18 20 19 19 20 21 20 18 20 19 20 18 17 15 16 16 15 13 16 13 14 14 13 13 15 14 16 15 12 10 11 7 7 6 6 6 6 5 3 4 4 4 3 6 5 4 4 4 3 2 6 3 3 4 3 4 4 2 1 2 2 3 3 1 2 2 3 6 5 1 2 3 1 1
11 17 17 16 11 11 15 13 11 13 12 12 10 7 9 7 7 7 10 12 14 15 17 19 18 19 19 19 18 18 19 19 20 17 17 16 16 15 17 17 15 15 16 15 12 12 12 15 14 14 14 11 10 10 7 9 8 6 5 5 5 6 4 4 2 4 4 4 4 5 2 0 5 7 5 3 3 3 3 3 3 1 2 1 1 1 3 1 3 3 8 5 3 2 0 1 2
14 11 10 14 14 15 11 13 14 12 13 12 12 10 8 10 9 6 13 13 14 15 16 18 16 17 16 20 18 17 17 17 16 17 20 19 16 14 16 14 17 15 17 16 13 12 14 16 15 14 14 11 10 11 7 8 7 6 6 6 6 5 5 4 5 4 4 2 4 6 3 2 3 5 6 2 3 3 3 4 3 2 2 3 3 3 5 6 9 7 2 1 0 1 2 2 3
14 16 13 11 13 16 17 14 11 12 10 10 10 11 10 10 10 7 14 14 15 16 18 16 18 16 17 18 18 17 18 18 17 17 18 16 16 15 17 16 15 15 12 15 14 16 17 17 15 15 13 12 11 12 10 7 7 7 6 6 5 5 4 4 5 3 4 3 6 5 4 3 1 5 4 6 5 3 4 2 2 2 1 1 2 4 6 2 1 2 1 2 1 1 2 2 2
15 13 11 12 13 13 15 15 15 15 11 11 11 11 10 11 10 9 13 14 15 15 16 15 14 15 15 15 15 16 17 18 19 17 16 15 17 17 18 17 16 15 12 11 15 16 15 13 13 13 13 15 12 11 9 8 7 7 6 6 5 5 4 5 4 4 3 4 6 4 5 3 3 2 4 3 3 3 3 2 1 2 1 2 2 2 1 1 2 2 2 1 3 2 2 1 1
13 13 10 11 11 11 12 12 13 15 11 13 13 11 8 10 12 12 10 14 15 14 15 14 14 14 15 16 14 15 17 16 18 18 19 19 16 14 16 17 17 16 12 14 16 16 15 14 13 13 13 14 13 10 10 8 8 7 6 6 6 5 5 5 5 4 3 4 5 5 5 4 4 3 3 3 2 3 3 3 2 2 2 2 1 1 2 1 2 2 3 2 2 2 1 1 2
10 10 14 12 13 10 14 19 19 18 13 17 15 11 9 12 14 15 14 15 14 14 14 13 12 14 15 14 15 16 15 16 18 19 19 20 19 17 19 18 17 16 15 13 13 13 14 14 13 14 16 14 13 10 10 8 8 6 6 6 5 7 5 6 5 6 6 4 5 6 5 5 4 4 3 4 3 3 2 3 2 2 2 2 2 1 1 2 2 2 1 1 2 2 3 1 3
12 13 12 14 13 12 12 15 21 22 15 17 18 10 10 11 9 14 17 17 16 15 11 15 15 15 14 14 15 15 15 17 17 18 19 18 17 16 16 17 16 16 15 15 14 13 13 14 12 16 18 15 13 12 10 8 7 6 6 7 7 7 6 6 5 5 5 5 4 6 6 6 5 4 4 4 4 4 3 3 2 2 1 2 3 2 2 2 1 1 2 2 1 1 3 1 1
13 13 13 12 14 12 11 12 14 22 17 13 18 14 11 7 7 17 15 15 16 14 18 15 12 11 12 12 14 15 15 16 17 16 19 18 15 17 17 16 17 17 15 16 16 14 14 13 13 13 14 16 11 10 9 8 7 6 5 5 5 7 8 7 5 4 5 4 5 5 8 6 6 5 5 4 4 4 4 3 2 2 1 2 3 3 1 0 2 2 1 2 1 1 2 1 2
11 12 12 13 14 16 14 12 13 17 20 16 16 16 14 11 7 8 9 13 14 17 16 15 17 16 14 14 14 16 15 16 16 15 18 17 18 17 16 17 17 16 14 17 15 14 13 11 10 10 12 13 12 9 8 8 7 5 5 6 6 6 5 4 5 4 4 5 6 5 9 7 6 6 5 5 5 3 5 4 3 3 4 4 2 1 1 1 2 2 2 1 3 2 0 2 2
14 14 13 12 13 13 14 15 12 14 18 17 16 14 15 14 14 15 15 14 14 19 18 14 12 14 15 15 14 13 14 16 15 16 18 17 16 17 15 16 16 15 13 13 13 12 11 11 11 9 10 12 10 8 8 7 8 7 7 6 6 5 5 5 4 5 5 4 5 6 9 6 6 6 5 5 5 4 4 6 5 5 4 3 1 2 2 2 0 2 0 5 2 3 1 2 3
15 15 14 14 15 15 15 15 14 15 12 14 15 15 16 15 14 16 16 14 15 15 19 15 12 12 13 14 15 14 14 15 15 16 16 17 18 16 14 14 14 16 13 14 16 15 14 13 13 12 12 12 11 10 9 9 9 8 7 9 8 8 6 6 6 5 6 6 6 6 9 6 6 6 5 5 5 5 3 5 5 5 4 3 3 3 3 1 2 2 1 0 4 2 1 3 0
20 15 15 14 16 13 15 16 16 13 11 11 13 16 16 17 15 15 17 18 18 17 21 17 17 17 15 17 17 16 14 11 17 15 17 18 16 18 16 14 15 17 14 15 16 17 15 14 14 13 11 12 13 12 10 9 8 8 8 8 8 8 7 6 6 4 5 6 5 6 7 7 6 6 5 5 5 5 5 4 4 4 4 4 4 3 2 3 4 3 3 1 2 2 2 4 2
20 16 14 14 13 13 15 19 12 12 12 10 15 18 16 15 15 15 14 16 14 15 15 15 23 21 18 18 17 17 17 16 17 17 17 16 18 19 15 14 15 18 18 18 14 15 15 12 13 13 11 11 12 12 10 9 8 8 8 7 8 7 7 7 7 6 5 6 6 6 7 7 7 6 6 6 5 6 5 6 5 4 5 5 4 3 4 4 4 4 4 3 3 3 2 1 0
15 15 15 13 12 13 12 17 14 13 11 10 13 15 15 14 14 15 16 16 15 15 16 15 18 23 20 19 18 18 19 17 18 18 20 19 18 17 15 14 14 16 15 16 17 17 14 11 12 13 12 11 10 11 10 10 9 7 7 7 7 6 7 7 6 6 5 6 7 7 6 7 7 6 7 7 6 5 6 6 6 5 4 5 5 4 4 4 3 1 3 4 3 3 3 3 2
17 18 16 14 13 13 13 12 14 14 15 13 12 13 12 14 16 15 15 18 18 18 18 15 13 14 20 21 19 19 20 19 19 20 19 20 19 19 17 16 16 16 17 18 18 18 15 16 13 15 12 11 11 11 11 9 9 8 7 6 7 6 5 7 6 6 6 6 6 7 7 8 7 7 7 7 6 6 6 6 5 5 6 5 5 5 5 4 3 4 4 3 4 3 2 1 1
15 20 19 17 14 16 14 15 14 13 14 15 11 8 12 12 17 17 13 14 17 16 18 16 12 12 19 20 20 19 18 18 19 20 21 21 18 12 15 16 18 18 17 17 19 19 16 15 13 14 12 10 12 13 13 10 9 9 9 8 8 8 7 8 9 8 8 8 10 8 8 9 9 8 7 8 7 6 6 7 5 6 5 5 5 5 4 3 4 5 5 3 3 3 1 3 4
15 15 20 20 17 16 16 17 14 12 13 14 17 14 10 12 15 15 15 17 17 11 14 17 14 9 17 18 18 18 18 18 17 16 18 20 19 19 19 17 20 20 19 18 18 17 16 15 14 14 13 11 12 12 14 10 10 9 10 10 8 9 8 7 6 7 7 6 7 6 8 9 8 9 9 8 7 7 6 6 7 6 6 6 6 5 5 5 6 7 4 3 3 3 1 1 2
14 13 17 20 19 17 17 17 14 11 10 12 20 15 11 9 12 16 19 18 16 16 16 17 17 14 19 17 17 16 17 19 18 19 19 19 20 21 22 23 21 21 20 19 19 18 17 17 16 15 12 12 11 12 14 12 11 10 10 10 8 8 9 7 7 7 6 5 7 8 7 9 9 9 8 8 8 7 7 7 7 6 7 6 6 6 6 6 5 3 4 4 3 3 3 2 2
12 13 15 18 20 18 16 15 13 13 11 11 14 19 12 11 10 15 17 21 21 20 19 16 17 17 18 22 19 18 18 19 19 19 18 15 21 22 22 22 22 21 20 20 19 17 17 17 16 15 14 13 12 14 14 14 11 11 11 10 9 7 8 7 6 6 6 6 6 7 6 9 9 9 9 8 8 8 7 8 6 6 6 6 6 5 5 5 5 5 5 4 4 3 3 3 2
15 14 13 12 17 19 18 14 13 11 12 14 16 18 13 10 10 12 18 19 20 18 16 16 18 18 18 17 18 19 17 16 19 20 19 15 13 15 19 20 20 20 19 19 19 18 18 16 17 17 16 14 13 14 15 15 14 12 11 11 11 9 8 7 7 7 7 7 7 8 8 7 10 9 9 8 8 9 8 8 8 8 7 7 7 7 6 5 6 5 5 4 4 4 3 3 3
12 16 13 11 11 12 14 14 11 10 15 14 15 10 11 11 11 14 14 15 15 16 15 14 17 18 17 19 19 17 16 16 17 19 19 17 13 12 13 17 19 19 17 19 19 18 19 18 18 19 18 15 15 15 16 17 15 13 12 12 13 11 10 9 8 8 8 8 8 7 8 6 8 9 9 8 8 10 9 9 9 9 7 7 6 6 6 6 6 5 5 5 5 5 4 4 3
15 12 13 9 10 10 11 12 13 14 15 12 16 17 17 15 10 11 13 14 18 16 18 19 20 17 14 13 17 20 20 16 17 17 19 19 17 15 14 18 15 18 18 19 20 18 18 18 19 20 18 17 16 16 16 17 15 14 13 13 13 12 11 9 10 9 10 10 8 7 6 7 6 8 9 8 9 12 9 8 8 8 8 6 7 6 5 5 6 6 5 6 5 4 5 4 4
15 13 13 13 9 9 10 9 15 17 14 11 17 19 16 19 12 11 11 11 13 17 15 16 18 19 17 17 17 18 17 17 17 15 14 15 17 14 16 16 21 21 18 21 22 22 20 19 21 22 20 19 17 17 17 17 16 15 14 14 13 11 11 11 10 9 8 9 8 8 7 7 8 6 8 9 9 10 9 8 8 8 7 7 6 6 5 4 4 6 6 6 5 6 5 5 5
17 16 14 14 12 12 10 12 8 9 13 15 15 20 17 14 13 18 17 11 15 16 16 15 19 20 17 18 16 16 20 19 18 17 15 14 14 13 13 16 18 20 21 22 22 20 18 20 21 23 22 21 18 18 18 18 18 16 14 13 12 11 11 11 10 10 9 8 8 9 9 9 8 9 8 9 9 10 9 10 9 9 7 7 7 7 6 5 4 5 7 6 7 6 6 6 5
16 15 15 13 10 10 12 11 14 13 8 15 18 13 13 19 8 13 20 18 14 14 16 15 17 17 19 20 20 20 21 19 16 15 17 16 16 17 19 20 22 21 22 22 20 18 18 19 21 23 22 21 19 19 17 19 17 16 15 13 12 11 11 11 10 9 9 9 9 9 9 9 9 9 9 8 8 9 9 9 10 10 8 8 8 7 7 6 5 5 5 6 6 6 7 6 6
15 15 13 14 15 10 11 9 11 11 11 11 15 15 11 11 8 14 14 19 21 17 14 18 17 19 20 19 20 19 20 19 18 17 16 15 13 12 9 12 17 20 20 20 20 17 18 19 20 23 23 22 21 20 18 18 17 16 16 15 15 13 11 11 10 9 9 9 9 9 10 9 8 8 9 8 9 9 10 10 10 11 9 9 8 9 8 7 6 6 5 5 6 6 6 8 7
15 15 18 16 13 13 9 10 13 12 10 11 8 12 14 11 11 12 15 17 20 21 19 15 17 24 23 21 21 20 18 20 19 17 15 16 15 12 13 16 20 23 22 22 20 20 20 19 20 21 21 21 22 21 20 18 18 17 18 17 15 14 14 15 14 14 14 12 10 10 9 10 9 8 8 9 9 9 8 10 10 11 10 9 8 9 9 7 7 7 7 6 7 7 7 7 7
12 16 15 13 14 13 10 9 7 11 11 9 13 14 12 14 11 11 15 15 14 20 21 19 15 18 19 23 22 19 19 19 24 23 23 23 21 22 22 22 26 25 26 22 20 18 17 18 20 21 21 21 21 21 20 19 19 19 18 18 18 17 16 16 15 14 13 11 11 9 10 9 11 10 8 9 9 10 9 9 9 10 10 10 10 9 9 8 8 7 7 7 7 6 7 7 8
14 15 13 15 13 15 11 7 11 10 11 8 10 15 13 14 11 12 17 17 16 14 18 20 18 17 21 22 23 21 18 17 19 19 17 19 18 22 23 27 27 25 22 20 18 19 18 18 20 22 24 24 23 21 20 18 19 16 15 18 19 17 15 15 14 13 12 13 13 12 12 11 10 10 9 7 9 10 10 9 8 10 9 10 9 9 9 9 9 8 8 7 7 7 7 8 7
20 12 16 14 10 12 12 10 7 6 8 8 9 11 9 11 12 14 13 16 14 16 14 21 20 16 15 19 22 19 18 14 18 20 20 20 20 19 23 23 23 24 23 22 24 22 23 22 21 21 22 20 20 20 18 18 19 17 17 17 17 16 16 15 14 13 13 14 14 13 13 13 11 10 10 10 8 10 11 11 10 10 11 11 10 10 10 10 9 9 8 8 8 9 8 8 9
18 15 13 14 11 8 10 9 12 7 6 7 8 9 7 7 10 13 13 15 14 14 13 12 16 16 14 19 21 20 17 14 17 18 19 20 21 23 22 20 18 18 19 20 21 24 23 21 22 23 23 24 23 22 20 17 17 17 17 18 18 16 17 15 15 15 14 13 13 13 12 12 10 11 11 12 11 9 10 11 12 11 11 10 10 10 10 10 10 10 9 9 8 10 10 8 8
18 16 14 14 15 14 15 12 11 12 8 4 6 7 7 13 11 12 13 13 14 13 13 13 17 17 14 14 18 18 17 16 16 19 19 19 17 15 14 11 7 11 18 23 22 21 23 23 22 23 22 22 23 22 19 18 17 17 18 18 19 18 17 16 17 16 15 14 14 13 12 12 12 12 12 12 12 11 9 11 12 11 11 11 11 11 11 10 11 11 11 9 9 10 11 10 9
Wind_Direction
183 189 187 199 203 270 42 175 262 172 211 265 321 198 63 121 157 127 189 176 216 157 99 80 84 69 86 89 96 79 42 39 360 202 120 127 141 153 161 141 139 139 134 133 133 138 134 140 132 132 130 130 130 127 121 117 114 113 113 111 109 106 103 101 100 100 100 100 100 100 98 95 94 94 93 92 90 89 89 89 89 89 86 85 86 85 84 81 79 82 83 86 85 85 87 88 87
187 193 192 173 189 138 225 172 277 253 203 261 186 140 238 145 189 181 177 182 111 116 56 97 93 106 104 102 98 81 53 55 82 89 92 126 143 144 146 141 143 139 134 133 139 138 133 132 133 135 136 135 130 125 121 118 115 114 114 112 108 105 104 103 103 103 102 102 102 100 97 94 92 91 90 89 89 89 89 90 90 91 91 90 89 86 82 82 83 86 85 87 92 91 91 90 87
183 189 183 156 318 207 345 239 274 267 275 250 151 174 109 191 217 160 180 123 144 95 106 88 89 72 92 90 82 87 85 90 94 97 112 138 135 144 147 143 145 138 135 136 137 137 132 135 137 138 137 132 128 125 122 117 117 116 115 111 108 106 105 105 105 105 105 103 101 98 96 94 92 92 91 90 90 92 93 89 86 87 87 85 84 86 89 88 87 88 89 87 88 94 94 93 90
166 200 148 171 166 161 254 210 252 281 281 359 43 115 183 197 182 165 169 102 91 91 80 92 67 69 102 89 96 97 105 93 101 120 130 149 139 142 144 146 144 139 136 137 139 137 133 134 137 142 135 130 129 126 120 119 119 117 114 111 109 108 107 106 106 106 105 102 99 98 96 95 94 93 92 90 90 89 88 89 91 90 91 93 94 89 87 87 87 86 88 89 91 93 95 96 94
186 198 124 65 294 232 235 244 291 296 295 129 181 182 180 205 149 143 151 101 112 102 108 106 95 92 86 103 115 104 112 110 113 120 132 132 141 145 146 141 142 140 140 140 137 132 134 138 138 142 135 130 128 124 122 122 120 117 115 113 112 109 108 108 108 107 103 101 98 96 96 95 94 91 90 90 90 89 88 88 89 88 89 91 93 95 94 93 91 89 89 89 93 97 100 99 97
243 81 60 154 248 31 265 240 246 264 251 134 190 196 168 218 175 151 108 105 91 74 94 109 99 99 77 69 91 110 132 120 127 126 131 134 143 142 140 145 142 142 141 139 133 130 136 140 146 144 135 131 127 125 125 124 121 118 116 115 113 111 111 112 109 106 103 101 100 97 96 94 93 92 90 89 90 91 91 91 92 92 92 92 93 93 93 92 94 96 93 93 96 97 98 97 96
207 184 166 216 260 244 288 288 271 256 264 214 88 170 184 143 73 95 116 119 112 135 156 105 110 109 93 98 96 101 108 119 130 129 133 137 139 139 142 143 142 140 141 137 131 132 138 145 145 145 133 130 128 128 127 124 122 119 118 116 114 115 116 114 110 107 104 103 102 99 96 96 94 92 91 91 91 92 92 91 95 96 95 93 93 94 94 93 92 93 94 96 99 99 98 98 99
158 149 197 98 320 265 259 256 251 224 254 252 149 189 67 111 115 128 127 123 117 108 110 95 76 87 96 107 101 115 114 116 120 128 132 137 138 140 144 144 141 141 138 134 132 131 139 148 148 142 134 131 132 131 128 126 122 119 119 118 119 121 119 114 109 106 103 102 100 98 97 95 92 92 91 90 90 93 95 97 97 98 99 97 96 95 93 94 94 90 91 92 92 96 94 93 94
182 217 177 263 253 223 262 252 240 199 279 159 153 64 133 111 137 112 112 106 96 109 98 99 104 100 113 109 96 109 111 119 124 127 133 135 137 138 139 141 141 141 136 134 130 132 142 151 148 139 135 134 134 131 129 127 122 122 121 122 123 122 117 111 107 106 104 102 100 98 96 92 92 91 91 90 89 93 95 96 97 98 98 96 94 96 97 95 92 91 90 95 100 104 101 100 97
191 229 286 285 305 289 291 270 294 117 217 203 84 142 126 148 110 113 118 114 116 90 88 93 100 104 114 100 111 118 123 127 131 131 134 135 135 138 139 139 139 138 138 138 136 138 141 149 140 138 136 136 134 133 131 127 124 124 125 126 126 122 116 112 111 110 107 103 100 98 95 91 88 89 90 90 90 89 90 90 91 93 96 96 96 99 101 101 97 96 93 95 99 103 112 111 107
210 244 112 272 305 303 303 307 307 116 153 174 115 106 146 147 102 103 105 110 118 103 110 112 108 110 109 99 95 111 127 131 135 137 141 138 142 140 136 140 140 140 140 141 142 139 141 142 140 138 138 137 136 135 132 128 127 126 127 129 126 122 117 115 113 108 106 103 101 98 94 93 90 89 87 88 88 90 91 91 93 96 99 104 107 106 106 102 101 100 101 101 103 107 110 116 110
232 213 207 272 271 291 313 318 284 172 103 285 149 121 91 55 103 105 121 122 128 128 124 137 114 116 104 109 119 131 135 140 137 142 141 133 141 142 139 141 141 141 143 143 139 139 140 140 142 140 140 139 138 136 133 129 128 128 130 130 127 122 119 117 113 109 108 107 102 98 98 96 95 90 86 84 87 89 91 95 100 104 108 108 108 109 107 107 106 102 103 103 106 110 112 114 116
245 191 163 288 313 320 293 262 256 51 129 173 111 66 109 134 110 128 118 128 135 119 116 122 128 123 116 112 126 132 140 143 142 150 136 133 135 139 145 145 143 146 146 141 141 142 141 146 143 145 142 140 139 138 134 131 130 131 133 132 128 124 123 119 115 115 113 110 106 101 101 102 100 94 89 84 84 90 92 97 102 103 105 104 106 110 109 108 106 105 104 108 106 109 114 114 115
232 249 215 249 159 258 292 282 315 110 106 113 87 114 109 108 122 116 128 123 112 110 129 139 133 115 108 119 140 141 145 146 150 146 135 138 136 137 141 137 139 147 142 146 143 143 147 148 145 143 141 142 139 138 135 132 131 135 135 133 130 128 125 122 121 120 118 113 110 110 109 107 103 101 95 90 85 87 92 92 96 100 103 102 102 105 110 110 110 109 109 109 110 112 118 120 121
242 240 285 305 307 293 278 299 357 268 76 102 95 93 99 89 97 127 130 131 128 136 129 127 129 135 148 143 146 149 151 145 146 149 141 135 138 142 143 142 153 142 143 146 144 147 148 147 145 143 147 144 143 140 137 134 135 138 139 136 134 133 130 128 128 127 122 123 119 119 117 109 104 106 107 100 94 87 99 99 98 102 103 106 106 106 114 115 111 114 116 116 124 127 128 135 140
244 245 242 281 289 292 301 275 253 355 93 104 112 126 140 112 114 111 135 123 121 134 156 142 164 138 152 142 148 146 147 150 149 150 145 145 142 144 142 142 139 147 148 148 149 149 149 147 146 151 150 148 152 144 137 137 140 142 142 140 139 137 137 137 137 134 134 132 134 132 127 120 127 120 125 114 105 98 85 95 110 110 107 111 113 117 115 120 120 133 149 144 125 130 132 156 191
235 252 266 253 273 262 312 305 333 149 151 79 142 139 117 128 126 146 159 130 139 139 160 145 143 144 148 145 146 145 145 147 150 148 150 144 146 144 150 144 149 153 150 151 153 153 150 145 151 149 153 156 152 143 139 138 144 146 144 144 145 146 145 146 144 142 142 144 145 158 159 153 145 132 168 119 129 105 113 120 121 116 119 113 120 125 123 129 150 167 195 175 156 130 153 260 249
244 244 249 244 265 273 271 300 318 330 332 132 168 112 142 127 134 113 123 132 130 143 136 138 129 138 137 135 148 144 145 149 156 150 152 151 152 141 151 148 147 148 149 152 154 159 147 148 154 152 153 164 146 142 143 143 146 153 152 152 153 154 155 152 152 156 157 154 166 168 159 163 42 89 118 117 125 123 120 119 126 132 131 136 147 148 152 159 186 201 218 208 180 163 201 227 264
230 217 236 240 233 259 279 273 236 333 292 288 128 185 143 106 135 132 140 140 142 140 131 127 129 123 129 142 147 150 152 156 158 155 153 158 155 151 155 152 149 149 156 156 159 158 146 150 156 155 156 165 147 148 145 144 154 157 158 164 160 164 165 164 171 167 175 156 185 166 177 130 144 113 128 156 124 114 124 137 132 146 154 163 170 173 175 190 205 220 224 224 202 200 192 237 257
213 247 238 178 222 295 292 281 293 226 167 248 147 169 144 121 127 159 152 136 147 143 133 134 140 135 143 147 153 156 156 158 159 158 157 163 157 157 155 156 142 155 154 157 159 154 153 156 157 156 158 161 150 153 148 149 158 162 163 171 163 173 167 178 177 174 180 164 183 191 158 159 156 156 158 144 145 125 132 147 155 155 182 184 179 189 205 212 230 241 247 253 237 212 263 229 216
187 223 245 164 173 234 287 307 295 290 288 224 163 116 85 185 130 183 150 136 131 149 147 142 145 148 146 152 154 153 161 159 161 160 162 165 160 162 159 159 156 155 158 154 157 157 154 155 159 151 161 160 156 155 154 155 163 168 168 174 168 177 169 179 173 177 172 182 184 210 135 173 160 166 160 169 136 158 144 143 168 168 176 189 192 225 204 221 219 236 232 229 225 201 208 247 264
239 219 228 160 136 184 253 293 290 277 273 351 68 166 146 230 138 190 141 122 164 173 135 148 148 148 149 153 157 162 160 163 166 165 168 167 166 164 161 160 155 154 154 157 162 153 155 159 160 155 164 166 162 158 162 156 165 177 170 177 174 185 167 177 161 161 185 174 212 203 155 175 130 142 165 120 99 92 106 96 105 73 49 7 156 263 236 279 220 258 287 184 241 217 185 257 250
234 242 195 150 171 157 166 234 259 271 274 261 106 34 257 209 169 146 129 160 150 165 143 134 144 148 151 154 156 168 162 170 164 169 170 170 169 167 165 161 154 160 163 159 153 155 159 161 161 159 164 168 166 164 163 151 174 186 167 184 174 183 174 168 170 160 169 186 198 226 130 165 142 146 156 133 135 134 104 166 93 14 332 69 3 24 342 345 329 338 342 314 276 207 209 205 209
242 249 212 180 193 180 195 225 258 263 266 253 128 192 172 173 146 186 136 185 130 130 121 141 144 149 152 158 160 169 162 175 161 178 170 173 173 169 169 162 164 156 149 156 157 164 165 164 162 162 160 167 175 164 165 158 177 186 170 180 181 182 176 167 169 170 161 193 182 184 195 225 131 162 155 145 136 120 163 141 113 30 272 162 161 142 271 35 1 322 318 331 349 275 164 129 168
224 232 249 160 181 176 192 215 234 250 254 269 268 215 209 158 175 168 162 104 128 134 144 144 146 149 156 158 162 166 172 169 169 171 171 176 173 170 168 162 169 160 163 170 156 169 163 165 166 165 164 174 171 169 168 159 181 191 175 176 186 180 180 169 178 168 150 188 162 184 230 190 158 134 141 130 135 151 134 152 179 174 158 190 69 313 233 102 77 327 352 255 232 182 249 117 119
226 238 237 230 204 172 204 220 223 228 249 259 237 219 229 161 153 189 153 172 126 136 144 147 150 153 161 162 159 164 179 166 174 170 174 169 178 170 166 168 178 164 167 167 165 165 172 168 171 167 168 175 169 173 169 159 183 204 173 171 178 161 195 175 151 190 168 180 163 185 219 130 329 93 83 103 138 158 150 154 129 191 233 139 189 202 169 113 98 219 248 256 245 169 228 128 164
212 220 229 240 230 222 193 210 214 225 235 239 256 236 221 196 184 189 158 163 144 140 142 151 153 162 161 162 163 167 174 172 176 170 170 172 182 174 173 171 179 174 163 175 161 163 166 164 176 165 170 172 172 176 175 160 186 191 170 168 177 169 197 117 226 197 174 176 160 157 172 51 123 122 123 142 200 164 143 139 136 208 154 161 148 156 71 193 258 167 224 195 203 224 144 270 91
245 248 241 237 245 247 242 210 215 223 228 239 243 241 236 211 179 216 155 166 152 150 152 151 158 156 171 156 166 168 169 180 173 175 173 178 180 179 180 174 180 176 173 173 163 173 166 176 172 175 172 174 176 178 173 168 180 184 171 173 182 172 187 150 195 203 107 202 143 138 162 153 128 112 125 141 203 151 133 159 157 183 154 195 171 136 166 212 208 208 250 183 45 187 170 144 156
239 236 240 249 245 232 231 237 229 221 239 226 238 250 243 237 190 208 162 171 163 161 155 164 158 162 164 166 162 170 175 173 178 179 182 181 179 181 183 182 178 177 176 174 164 171 172 176 175 174 174 171 181 178 176 180 176 178 178 178 178 174 180 185 183 196 154 165 117 155 136 161 323 125 142 168 181 123 145 149 127 146 128 192 194 199 228 157 290 309 321 335 291 127 329 171 190
254 242 241 232 236 245 235 228 225 221 230 222 218 234 218 214 203 225 156 173 163 166 157 164 158 157 162 163 168 169 175 177 179 185 178 176 176 183 185 183 183 182 176 172 176 175 175 181 174 172 168 174 180 183 168 180 177 179 175 175 174 178 178 185 195 168 179 150 137 149 145 171 162 143 148 163 120 128 127 119 172 131 186 258 217 233 82 16 321 285 221 178 256 58 226 69 68
232 233 236 241 236 234 212 228 233 242 216 218 223 239 226 221 217 186 166 169 165 160 160 164 162 163 162 165 169 174 176 185 180 183 176 175 180 185 181 185 182 179 178 177 179 178 175 178 175 176 171 175 180 183 169 178 175 179 177 179 179 174 175 186 193 178 168 165 147 152 152 168 162 173 149 152 133 139 145 152 182 134 199 199 317 248 198 75 246 299 313 108 311 139 326 191 75
236 230 221 221 241 236 232 202 214 218 206 217 214 234 224 229 205 189 169 164 175 165 165 161 169 164 163 168 168 175 179 182 185 184 181 176 180 178 190 181 182 177 182 175 176 178 179 177 173 178 170 171 179 181 169 176 177 178 175 184 175 167 188 190 202 186 178 175 176 152 165 165 172 174 164 141 140 147 172 133 148 156 165 272 201 280 242 175 345 244 242 331 90 4 311 190 152
221 229 227 224 219 232 244 233 196 204 213 200 217 221 219 228 221 184 174 179 181 169 148 165 189 170 171 172 165 173 178 182 187 186 184 178 180 183 182 179 183 179 180 175 178 176 179 180 175 178 176 173 176 180 170 171 170 178 177 185 182 164 193 193 196 199 175 184 181 160 166 162 179 171 175 159 169 165 151 127 140 189 186 297 193 194 287 84 252 314 318 26 336 81 286 115 43
213 212 231 227 224 214 235 245 226 186 207 203 204 227 223 216 255 180 179 172 179 162 149 191 171 175 162 174 169 173 181 181 188 185 188 180 177 180 180 182 180 182 171 177 182 175 180 181 178 176 176 176 174 173 173 167 171 174 185 183 178 173 199 196 200 193 176 180 176 158 157 165 169 176 179 169 184 167 155 143 153 162 52 262 270 118 220 342 263 220 157 335 10 176 273 344 249
211 204 214 225 233 238 221 222 213 201 184 210 202 218 214 207 148 156 196 182 185 156 178 169 175 179 173 176 182 177 183 183 188 183 188 178 179 183 182 178 179 189 175 178 182 173 181 176 177 175 168 174 172 170 165 168 167 170 186 184 188 174 203 212 193 187 199 184 184 149 150 161 172 175 178 180 171 195 155 140 140 150 187 224 217 95 83 280 260 263 138 124 320 331 356 317 354
225 219 214 220 227 222 237 219 224 192 195 205 206 208 217 209 170 184 198 212 201 161 176 186 182 167 175 178 183 179 186 186 184 185 186 183 184 180 180 177 183 184 179 173 174 170 180 172 176 173 165 167 164 167 165 175 176 178 184 189 186 189 192 212 201 191 191 186 179 141 152 156 168 176 179 181 180 187 167 148 158 182 205 189 145 184 178 186 88 296 171 118 266 271 259 277 262
234 231 223 214 222 234 229 234 226 180 211 210 209 215 211 216 199 184 188 202 216 168 169 179 178 181 184 180 182 181 186 186 181 183 187 185 183 179 179 179 183 172 175 175 166 177 186 178 172 173 172 160 168 172 177 181 182 175 186 191 190 188 194 195 210 197 187 193 172 163 149 159 162 175 180 185 179 191 156 143 158 175 186 163 188 208 171 189 215 214 109 270 179 244 211 238 289
246 247 229 227 218 226 230 236 206 179 205 201 208 225 220 214 207 202 180 194 208 191 172 173 166 186 190 188 182 183 184 182 179 185 188 185 189 181 181 178 184 175 177 177 173 176 185 179 170 174 175 173 170 177 174 184 177 183 182 186 187 187 186 192 202 206 198 185 156 153 152 159 168 173 185 187 187 181 161 148 162 176 174 161 175 183 171 191 222 211 144 139 297 248 210 220 165
233 243 251 239 224 219 230 242 200 179 197 209 199 217 224 220 208 204 199 189 206 210 203 187 163 184 183 187 179 180 178 183 181 185 183 185 187 182 183 179 185 182 180 180 178 176 181 182 168 172 181 178 178 172 172 183 178 179 186 184 189 184 184 194 197 198 209 192 165 162 154 160 168 176 183 191 196 184 183 159 177 188 186 170 154 171 183 195 225 227 161 166 200 219 271 5 324
226 230 241 240 232 214 206 237 214 188 212 215 194 223 223 224 226 221 212 207 207 211 206 209 172 175 181 180 177 178 178 174 180 183 186 185 186 184 183 183 184 182 177 179 182 177 178 187 170 171 180 177 177 171 172 177 180 180 184 185 194 193 176 182 191 187 202 197 189 171 153 165 173 181 190 195 196 190 185 180 172 181 178 168 157 176 185 204 209 217 209 194 220 200 196 181 208
226 232 229 239 241 239 249 199 213 199 200 224 203 214 221 213 217 219 214 217 221 211 206 208 203 198 166 171 176 176 178 173 180 185 186 183 186 187 184 180 186 186 181 183 183 182 183 184 174 171 177 176 171 171 172 171 175 184 185 197 187 207 170 174 180 194 194 190 201 176 171 165 173 188 193 197 197 194 175 186 179 173 178 166 166 178 192 186 201 218 222 188 200 230 174 138 282
222 226 234 233 235 243 234 263 217 191 200 204 219 228 226 209 221 221 212 215 224 204 198 195 194 193 148 169 177 178 175 173 178 185 185 186 183 173 179 178 189 189 186 184 184 184 180 181 175 170 175 179 171 172 172 172 179 178 185 192 186 190 189 175 186 188 187 186 203 190 171 176 182 194 192 198 200 191 188 184 179 184 176 175 172 189 178 175 179 232 214 200 204 229 215 193 162
222 216 223 237 237 235 248 235 243 217 210 188 199 231 228 205 221 219 219 221 222 223 204 188 186 180 158 171 173 174 177 176 179 181 183 184 180 184 188 187 192 192 188 183 183 183 180 178 178 170 175 180 173 170 173 174 176 184 188 193 194 185 191 189 178 189 193 182 194 203 163 174 183 193 198 194 201 188 179 185 194 183 185 177 185 185 183 195 205 205 163 208 213 187 154 262 147
225 218 207 224 239 238 234 246 242 244 217 214 195 203 238 229 213 218 217 224 217 219 220 186 177 187 160 168 171 173 178 177 181 187 191 183 182 188 187 187 192 195 185 182 182 182 181 177 177 174 174 180 179 171 175 176 178 182 185 192 194 192 194 189 181 183 192 187 180 206 166 174 179 189 200 195 193 191 174 195 203 184 190 183 191 199 193 192 176 198 187 184 199 162 180 215 260
226 214 219 209 223 233 243 244 252 246 221 230 209 197 214 227 220 207 216 220 218 220 215 186 173 188 158 166 170 179 184 177 178 185 185 183 189 191 189 188 191 193 186 185 184 181 179 176 177 175 176 180 182 176 174 177 181 182 186 189 193 192 192 191 183 182 187 194 190 189 191 171 176 185 197 199 188 194 180 186 197 200 197 185 181 198 203 199 168 186 188 180 183 164 179 204 238
212 237 218 225 207 219 230 241 245 255 257 245 211 207 233 226 203 210 205 223 218 220 230 204 179 190 171 173 181 178 176 174 184 186 183 189 192 190 187 184 185 195 190 186 184 181 176 172 175 176 178 179 183 181 175 179 184 182 186 190 191 188 189 187 190 182 188 190 210 184 195 177 174 181 190 200 189 192 191 184 189 203 197 202 185 199 200 191 181 186 186 177 177 182 175 203 219
201 220 237 218 221 204 213 231 238 247 246 240 257 234 232 246 226 211 212 200 218 207 212 210 183 185 185 171 170 172 175 178 184 189 185 188 191 190 189 191 191 200 192 186 186 181 179 175 175 179 181 180 182 184 177 180 185 186 189 189 192 190 188 189 185 183 183 193 203 197 184 189 172 178 186 197 196 187 195 192 197 194 204 197 200 205 192 197 174 179 190 179 181 184 179 176 230
210 199 219 217 208 218 210 207 216 234 235 229 226 230 225 247 232 232 209 203 208 217 212 205 183 177 189 170 172 174 177 181 182 188 186 180 179 177 186 187 189 208 195 188 188 182 179 176 176 179 181 181 182 185 181 181 184 187 190 191 193 192 189 191 191 190 183 191 194 199 187 189 195 173 182 189 200 195 191 194 198 197 191 199 199 204 209 197 168 180 188 172 179 192 174 180 211
203 202 205 213 194 194 204 203 207 219 229 209 224 224 235 239 243 245 218 206 208 209 223 194 176 187 194 171 181 166 170 177 184 186 185 173 179 173 186 187 187 201 194 188 187 183 180 177 178 178 181 182 182 183 184 183 185 189 189 191 193 192 192 192 195 196 184 186 189 194 196 189 192 194 180 187 194 200 184 192 194 200 189 190 196 196 210 199 184 173 180 172 179 189 188 178 206
196 205 194 206 197 186 207 208 229 232 226 230 221 215 241 249 235 232 254 212 212 213 211 195 192 199 184 167 176 174 172 176 183 180 179 181 177 182 192 190 200 198 195 188 187 184 180 181 179 180 182 182 181 182 183 185 188 189 190 191 192 191 193 194 195 195 196 188 185 194 200 195 189 199 194 191 191 197 191 187 191 198 197 186 191 192 199 200 182 175 178 179 184 187 192 183 194
198 203 203 207 207 189 199 206 210 218 222 207 224 227 222 227 218 217 220 241 240 209 209 201 189 183 166 178 181 183 175 174 181 179 182 183 184 184 192 200 195 195 197 190 190 185 180 181 179 181 180 182 182 182 183 186 187 189 190 192 193 191 194 196 198 197 198 197 192 194 198 201 197 195 202 195 187 189 196 187 188 195 198 190 187 187 195 199 185 177 188 180 185 176 190 184 187
198 198 209 209 208 192 215 203 224 216 216 218 198 224 227 230 222 225 221 216 223 242 220 210 191 169 174 179 182 187 176 170 180 180 185 179 170 174 192 207 200 195 195 193 191 186 183 182 181 182 180 180 182 183 185 185 186 187 188 191 193 193 193 195 198 199 200 200 198 196 196 202 201 194 194 195 191 191 192 191 186 194 195 196 188 188 189 193 185 181 194 185 191 179 185 189 184
180 194 207 211 196 216 225 229 219 227 222 228 212 210 222 252 238 220 224 220 211 212 230 224 207 173 176 179 179 186 183 169 175 177 181 181 182 169 194 211 208 200 198 195 191 188 184 179 180 182 182 182 182 183 183 184 185 186 190 191 192 193 192 194 198 199 201 200 201 199 198 200 204 199 189 194 195 196 192 188 187 192 194 196 192 186 190 191 181 184 190 194 193 194 178 190 193
173 206 204 208 211 223 234 238 202 221 225 216 217 223 206 207 229 207 213 221 226 202 208 219 225 177 176 169 176 187 184 184 170 171 178 185 187 186 189 204 208 198 197 195 189 187 182 180 181 181 182 184 184 183 184 184 184 187 188 190 192 194 195 198 199 199 200 199 200 201 202 198 201 206 200 194 193 192 199 189 185 189 191 194 195 190 189 190 182 186 192 197 197 200 183 188 200
211 200 183 205 183 207 213 249 236 210 220 237 207 221 227 197 210 205 208 210 212 231 196 205 221 200 187 175 175 178 183 189 158 165 168 173 180 184 195 198 199 194 193 194 185 185 182 182 183 183 184 185 184 185 186 185 184 186 188 190 192 193 195 198 199 198 196 201 202 200 204 203 198 200 205 205 185 192 191 195 188 186 188 191 193 192 186 189 183 188 194 195 197 200 193 192 197
230 202 197 205 219 207 203 209 251 246 219 221 234 229 238 195 201 202 202 198 201 224 212 194 209 214 197 162 166 179 180 186 158 168 171 177 183 187 194 197 200 196 192 194 192 189 189 186 183 187 187 185 185 187 186 185 187 185 186 188 191 192 193 195 196 195 196 199 201 201 201 203 199 195 199 203 200 191 186 192 193 191 193 192 194 195 187 189 187 190 193 196 197 197 202 196 198
203 217 202 184 225 192 224 195 224 226 246 202 223 226 232 249 182 187 197 185 187 213 222 189 202 204 192 162 177 178 176 183 166 170 173 178 186 190 188 188 195 209 197 195 195 193 191 188 188 187 186 187 187 188 186 187 189 190 187 187 189 188 191 193 197 198 198 199 200 201 199 202 196 199 195 198 204 198 187 189 196 199 198 194 193 195 190 187 191 190 195 197 196 191 201 203 198
201 208 206 193 192 199 197 213 198 226 237 244 221 235 234 213 198 182 198 165 173 197 225 188 197 203 183 186 178 167 173 183 179 175 171 177 177 180 172 169 165 207 208 199 197 195 192 192 191 189 189 190 189 188 188 185 189 189 189 188 191 188 190 192 197 197 200 198 198 199 199 196 200 199 196 197 199 200 193 187 194 194 199 196 193 194 192 189 190 192 196 196 200 189 195 203 201